Home   Weather   Thane   Past weeks

Flag for India Past Weather in Thane, Maharashtra, India — Yesterday and Last 2 Weeks

Now
84 °F

Haze.


Feels Like: 91 °F
Forecast: 79 / 92 °F
Wind: 6 mph from Northwest

Location: Mumbai / Santacruz

Current Time: Apr 28, 2017 at 11:16:55 pm

Latest Report: Apr 28, 2017 at 10:30 pm


Visibility: 2 mi

Pressure: 29.83 "Hg

Humidity: 70%

Dew Point: 73 °F

Location of ThaneLocation

Past Weather in Thane — Graph

°F

Thane Temperature Yesterday

Maximum temperature yesterday: 93 °F (at 2:00 pm)
Minimum temperature yesterday: 81 °F (at 4:30 am)
Average temperature yesterday: 86 °F

High & Low Weather Summary for the Past Weeks

 TemperatureHumidityPressure
High97 °F (Apr 16, 3:30 pm)89% (Apr 14, 7:00 am)29.92 "Hg (Apr 14, 7:00 am)
Low81 °F (Apr 14, 5:30 am)36% (Apr 16, 6:00 pm)29.68 "Hg (Apr 15, 3:30 pm)
Average86 °F70%29.80 "Hg
* Reported Apr 13 9:30 pm — Apr 28 10:00 pm, Thane, Weather by CustomWeather, © 2017

Note: Actual official high and low records may vary slightly from our data, if they occured in-between our weather recording intervals... More about our weather records

Advertising

Thane Weather History for the Previous 24 Hours

Scroll right to see more
 ConditionsComfort  
Time TempWeatherWind HumidityBarometerVisibility
10:00 pm
Fri, Apr 28
84 °FHaze.5 mph66%29.83 "Hg2 mi
9:30 pm84 °FHaze.7 mph66%29.83 "Hg2 mi
9:00 pm84 °FHaze.9 mph70%29.80 "Hg2 mi
8:30 pm84 °FHaze.8 mph70%29.80 "Hg2 mi
8:00 pm86 °FHaze.8 mph66%29.80 "Hg2 mi
7:30 pm84 °FHaze.9 mph74%29.80 "Hg2 mi
7:00 pm86 °FHaze.8 mph66%29.77 "Hg2 mi
6:30 pm88 °FHaze.12 mph62%29.77 "Hg3 mi
6:00 pm88 °FHaze.13 mph62%29.77 "Hg3 mi
5:30 pm88 °FHaze.8 mph66%29.77 "Hg3 mi
5:00 pm88 °FHaze.9 mph66%29.77 "Hg3 mi
4:30 pm88 °FHaze.12 mph70%29.77 "Hg3 mi
4:00 pm88 °FHaze.8 mph66%29.77 "Hg3 mi
3:30 pm90 °FHaze.18 mph63%29.80 "Hg2 mi
3:00 pm90 °FHaze.8 mph67%29.80 "Hg2 mi
2:30 pm90 °FHaze.8 mph63%29.83 "Hg2 mi
2:00 pm90 °FHaze.8 mph67%29.83 "Hg2 mi
1:00 pm91 °FClear.12 mph59%29.86 "Hg2 mi
12:30 pm90 °FClear.13 mph63%29.86 "Hg2 mi
12:00 pm91 °FClear.9 mph56%29.89 "Hg2 mi
11:30 am91 °FClear.10 mph56%29.89 "Hg2 mi
11:00 am93 °FClear.7 mph49%29.89 "Hg2 mi
10:30 am91 °FClear.7 mph59%29.89 "Hg2 mi
10:00 am91 °FClear.6 mph59%29.89 "Hg2 mi
9:30 am90 °FClear.5 mph59%29.89 "Hg2 mi
9:00 am88 °FClear.6 mph59%29.86 "Hg2 mi
8:30 am84 °FHaze.6 mph66%29.86 "Hg2 mi
8:00 am82 °FHaze.7 mph74%29.83 "Hg2 mi
7:30 am82 °FScattered clouds.5 mph74%29.83 "Hg2 mi
6:30 am81 °FHaze.5 mph79%29.83 "Hg2 mi
6:00 am81 °FHaze.No wind79%29.83 "Hg2 mi
5:30 am81 °FHaze.3 mph79%29.83 "Hg2 mi
5:00 am81 °FHaze.No wind79%29.83 "Hg2 mi
4:30 am81 °FHaze.5 mph84%29.83 "Hg2 mi
4:00 am81 °FHaze.No wind84%29.83 "Hg2 mi
3:30 am82 °FHaze.3 mph79%29.83 "Hg2 mi
3:00 am82 °FHaze.5 mph79%29.83 "Hg2 mi
2:30 am82 °FHaze.3 mph79%29.83 "Hg2 mi
2:00 am82 °FHaze.3 mph79%29.86 "Hg2 mi
1:30 am82 °FHaze.5 mph79%29.86 "Hg2 mi
1:00 am82 °FHaze.6 mph79%29.86 "Hg2 mi
12:30 am82 °FHaze.8 mph79%29.86 "Hg2 mi
12:00 am84 °FHaze.6 mph74%29.86 "Hg2 mi
11:30 pm
Thu, Apr 27
84 °FHaze.7 mph74%29.89 "Hg2 mi
11:00 pm84 °FHaze.7 mph74%29.89 "Hg2 mi
Weather by CustomWeather, © 2017

See weather overviewHow to use our weather pages